[Date Prev][Date Next][Thread Prev][Thread Next] - [Date Index][Thread Index][Author Index]
2 Line ISS Keps 2-7
- Subject: [sarex] 2 Line ISS Keps 2-7
- From: "Dave Larsen PhD" <doc@xxxxxxxxxxx>
- Date: Thu, 7 Feb 2002 03:11:30 -0800
ISS
1 25544U 98067A 02038.21487318 .00082192 00000-0 98058-3 0 454
2 25544 51.6400 346.3390 0006078 48.2563 90.8856 15.60317751183751
----
Via the sarex mailing list at AMSAT.ORG courtesy of AMSAT-NA.
To unsubscribe, send "unsubscribe sarex" to Majordomo@amsat.org
AMSAT Home